| time (UTC) | temp F | wind direction | speed MPH | gust MPH | rain 1hr in | rain 24hr in | rain mn in | humidity % | barometer mb |
| 20260831160531 | 52 | 0 | 0.0 | 0.0 | 0.00 | 0.51 | 0.51 | 86 | 1006.2 |
| 20260831160118 | 52 | 0 | 0.0 | 0.0 | 0.00 | 0.51 | 0.51 | 86 | 1006.1 |
| 20260831155530 | 53 | 0 | 0.0 | 1.0 | 0.00 | 0.51 | 0.51 | 85 | 1006.2 |
| 20260831155032 | 53 | 0 | 0.0 | 1.0 | 0.00 | 0.51 | 0.51 | 86 | 1006.2 |
| 20260831154619 | 53 | 0 | 0.0 | 0.0 | 0.00 | 0.51 | 0.51 | 88 | 1006.2 |
| 20260831154033 | 53 | 0 | 0.0 | 0.0 | 0.00 | 0.51 | 0.51 | 88 | 1006.2 |
| 20260831153529 | 53 | 0 | 0.0 | 0.0 | 0.00 | 0.51 | 0.51 | 87 | 1006.2 |
| 20260831153125 | 53 | 0 | 0.0 | 0.0 | 0.00 | 0.51 | 0.51 | 86 | 1006.2 |
| 20260831152530 | 54 | 0 | 0.0 | 0.0 | 0.00 | 0.51 | 0.51 | 84 | 1006.2 |
| 20260831152028 | 54 | 0 | 0.0 | 0.0 | 0.00 | 0.51 | 0.51 | 83 | 1006.2 |
| 20260831151548 | 54 | 0 | 0.0 | 0.0 | 0.00 | 0.51 | 0.51 | 83 | 1006.3 |
| 20260831151031 | 54 | 0 | 0.0 | 0.0 | 0.00 | 0.51 | 0.51 | 83 | 1006.2 |
| 20260831150532 | 55 | 0 | 0.0 | 1.0 | 0.00 | 0.51 | 0.51 | 83 | 1006.3 |
| 20260831150056 | 56 | 0 | 0.0 | 2.0 | 0.00 | 0.51 | 0.51 | 83 | 1006.4 |
| 20260831145530 | 57 | 336 | 0.0 | 2.0 | 0.00 | 0.51 | 0.51 | 81 | 1006.3 |
| 20260831145040 | 56 | 0 | 0.0 | 4.0 | 0.00 | 0.51 | 0.51 | 83 | 1006.3 |
| 20260831144552 | 57 | 0 | 1.0 | 4.0 | 0.00 | 0.51 | 0.51 | 81 | 1006.5 |
| 20260831144031 | 57 | 0 | 0.0 | 1.0 | 0.00 | 0.51 | 0.51 | 83 | 1006.4 |
| 20260831143532 | 57 | 0 | 0.0 | 1.0 | 0.00 | 0.51 | 0.51 | 83 | 1006.4 |
| 20260831143053 | 57 | 0 | 0.0 | 1.0 | 0.00 | 0.51 | 0.51 | 83 | 1006.4 |
| 20260831142530 | 57 | 0 | 0.0 | 1.0 | 0.00 | 0.51 | 0.51 | 84 | 1006.3 |
| 20260831142030 | 57 | 0 | 0.0 | 0.0 | 0.00 | 0.51 | 0.51 | 84 | 1006.2 |
| 20260831141548 | 57 | 0 | 0.0 | 1.0 | 0.00 | 0.51 | 0.51 | 85 | 1006.4 |
| 20260831141035 | 57 | 0 | 0.0 | 1.0 | 0.00 | 0.51 | 0.51 | 82 | 1006.5 |
| 20260831140530 | 57 | 0 | 0.0 | 1.0 | 0.00 | 0.51 | 0.51 | 82 | 1006.5 |
| 20260831140055 | 58 | 0 | 0.0 | 1.0 | 0.00 | 0.51 | 0.51 | 83 | 1006.5 |
| 20260831135531 | 57 | 0 | 0.0 | 1.0 | 0.00 | 0.51 | 0.51 | 81 | 1006.4 |
| 20260831135031 | 57 | 0 | 0.0 | 1.0 | 0.00 | 0.51 | 0.51 | 80 | 1006.3 |
| 20260831134556 | 57 | 0 | 0.0 | 2.0 | 0.00 | 0.51 | 0.51 | 81 | 1006.1 |
| 20260831134030 | 57 | 0 | 0.0 | 2.0 | 0.00 | 0.51 | 0.51 | 82 | 1006.3 |
| 20260831133532 | 56 | 0 | 0.0 | 1.0 | 0.00 | 0.51 | 0.51 | 84 | 1006.3 |
| 20260831133050 | 56 | 0 | 0.0 | 1.0 | 0.00 | 0.51 | 0.51 | 85 | 1006.3 |
| 20260831132533 | 56 | 0 | 0.0 | 1.0 | 0.00 | 0.51 | 0.51 | 86 | 1006.3 |
| 20260831132032 | 55 | 0 | 0.0 | 0.0 | 0.00 | 0.51 | 0.51 | 85 | 1006.2 |
| 20260831131552 | 56 | 0 | 0.0 | 0.0 | 0.00 | 0.51 | 0.51 | 86 | 1006.0 |
| 20260831131034 | 56 | 0 | 0.0 | 0.0 | 0.00 | 0.51 | 0.51 | 86 | 1006.0 |
| 20260831130531 | 56 | 0 | 0.0 | 1.0 | 0.00 | 0.51 | 0.51 | 85 | 1006.1 |
| 20260831130105 | 56 | 0 | 0.0 | 1.0 | 0.00 | 0.51 | 0.51 | 86 | 1006.1 |
| 20260831125532 | 57 | 0 | 0.0 | 1.0 | 0.00 | 0.51 | 0.51 | 84 | 1006.1 |
| 20260831125029 | 57 | 0 | 0.0 | 0.0 | 0.00 | 0.51 | 0.51 | 84 | 1006.0 |
| 20260831124555 | 56 | 0 | 0.0 | 1.0 | 0.00 | 0.51 | 0.51 | 83 | 1006.1 |
| 20260831124029 | 56 | 0 | 0.0 | 1.0 | 0.00 | 0.51 | 0.51 | 85 | 1006.1 |
| 20260831123530 | 55 | 342 | 0.0 | 1.0 | 0.00 | 0.51 | 0.51 | 86 | 1006.1 |
| 20260831123054 | 55 | 0 | 0.0 | 1.0 | 0.00 | 0.51 | 0.51 | 86 | 1006.2 |
| 20260831122533 | 55 | 110 | 0.0 | 1.0 | 0.00 | 0.51 | 0.51 | 87 | 1006.1 |
| 20260831122029 | 55 | 23 | 0.0 | 0.0 | 0.00 | 0.51 | 0.51 | 87 | 1006.1 |
| 20260831121550 | 55 | 0 | 0.0 | 0.0 | 0.00 | 0.51 | 0.51 | 87 | 1006.2 |
| 20260831121030 | 55 | 0 | 0.0 | 0.0 | 0.00 | 0.51 | 0.51 | 88 | 1006.0 |
| 20260831120533 | 55 | 0 | 0.0 | 0.0 | 0.00 | 0.51 | 0.51 | 87 | 1005.9 |
| 20260831120142 | 54 | 0 | 0.0 | 1.0 | 0.00 | 0.51 | 0.51 | 89 | 1005.9 |
| 20260831115531 | 54 | 0 | 0.0 | 1.0 | 0.00 | 0.52 | 0.51 | 89 | 1005.9 |
| 20260831115031 | 55 | 0 | 0.0 | 0.0 | 0.00 | 0.52 | 0.51 | 90 | 1005.9 |
| 20260831114551 | 55 | 0 | 0.0 | 0.0 | 0.00 | 0.52 | 0.51 | 90 | 1005.8 |
| 20260831114033 | 54 | 0 | 0.0 | 0.0 | 0.00 | 0.52 | 0.51 | 90 | 1005.8 |
| 20260831113531 | 54 | 0 | 0.0 | 0.0 | 0.00 | 0.52 | 0.51 | 89 | 1005.7 |
| 20260831113055 | 54 | 0 | 0.0 | 1.0 | 0.00 | 0.52 | 0.51 | 89 | 1005.7 |
| 20260831112531 | 54 | 0 | 0.0 | 1.0 | 0.00 | 0.52 | 0.51 | 91 | 1005.8 |
| 20260831112031 | 54 | 0 | 0.0 | 1.0 | 0.00 | 0.52 | 0.51 | 91 | 1005.7 |
| 20260831111600 | 54 | 0 | 0.0 | 0.0 | 0.00 | 0.52 | 0.51 | 91 | 1005.7 |
| 20260831111031 | 54 | 0 | 0.0 | 1.0 | 0.00 | 0.52 | 0.51 | 91 | 1005.8 |
| 20260831110532 | 53 | 0 | 0.0 | 1.0 | 0.00 | 0.52 | 0.51 | 92 | 1005.8 |
| 20260831110052 | 53 | 30 | 0.0 | 1.0 | 0.00 | 0.52 | 0.51 | 93 | 1005.8 |
| 20260831105530 | 53 | 0 | 0.0 | 1.0 | 0.00 | 0.57 | 0.51 | 94 | 1005.8 |
| 20260831105032 | 53 | 0 | 0.0 | 1.0 | 0.00 | 0.57 | 0.51 | 94 | 1005.7 |
| 20260831104552 | 53 | 0 | 0.0 | 0.0 | 0.01 | 0.57 | 0.51 | 95 | 1005.7 |
| 20260831104030 | 53 | 0 | 0.0 | 0.0 | 0.01 | 0.57 | 0.51 | 95 | 1005.8 |
| 20260831103530 | 52 | 0 | 0.0 | 0.0 | 0.01 | 0.57 | 0.51 | 96 | 1005.8 |
| 20260831103050 | 52 | 0 | 0.0 | 1.0 | 0.01 | 0.57 | 0.51 | 96 | 1005.6 |
| 20260831102529 | 52 | 0 | 0.0 | 1.0 | 0.01 | 0.57 | 0.51 | 95 | 1005.8 |
| 20260831102030 | 52 | 0 | 0.0 | 1.0 | 0.02 | 0.57 | 0.51 | 96 | 1005.7 |
| 20260831101613 | 52 | 0 | 0.0 | 2.0 | 0.02 | 0.57 | 0.51 | 96 | 1005.8 |
| 20260831101029 | 53 | 56 | 0.0 | 2.0 | 0.02 | 0.57 | 0.51 | 97 | 1005.6 |
| 20260831100531 | 53 | 29 | 0.0 | 1.0 | 0.02 | 0.57 | 0.51 | 97 | 1005.7 |
| 20260831100053 | 52 | 0 | 0.0 | 1.0 | 0.02 | 0.57 | 0.51 | 97 | 1005.6 |
| 20260831095530 | 52 | 0 | 0.0 | 1.0 | 0.02 | 0.57 | 0.51 | 97 | 1005.6 |
| 20260831095031 | 52 | 0 | 0.0 | 1.0 | 0.01 | 0.56 | 0.50 | 98 | 1005.6 |
| 20260831094604 | 52 | 0 | 0.0 | 1.0 | 0.02 | 0.56 | 0.50 | 97 | 1005.5 |
| 20260831094058 | 51 | 0 | 0.0 | 1.0 | 0.02 | 0.56 | 0.50 | 97 | 1005.4 |
| 20260831093532 | 52 | 0 | 0.0 | 1.0 | 0.02 | 0.56 | 0.50 | 97 | 1005.4 |
| 20260831093051 | 52 | 0 | 0.0 | 1.0 | 0.02 | 0.56 | 0.50 | 97 | 1005.3 |
| 20260831092530 | 52 | 0 | 0.0 | 1.0 | 0.03 | 0.56 | 0.50 | 97 | 1005.3 |
| 20260831092034 | 52 | 0 | 0.0 | 1.0 | 0.02 | 0.55 | 0.49 | 97 | 1005.3 |
| 20260831091603 | 52 | 0 | 0.0 | 1.0 | 0.02 | 0.55 | 0.49 | 97 | 1005.2 |
| 20260831091030 | 52 | 0 | 0.0 | 1.0 | 0.03 | 0.55 | 0.49 | 97 | 1005.4 |
| 20260831090530 | 52 | 0 | 0.0 | 1.0 | 0.03 | 0.55 | 0.49 | 97 | 1005.2 |
| 20260831090051 | 52 | 0 | 0.0 | 0.0 | 0.03 | 0.55 | 0.49 | 98 | 1005.2 |
| 20260831085531 | 52 | 0 | 0.0 | 0.0 | 0.04 | 0.55 | 0.49 | 98 | 1005.2 |
| 20260831085032 | 52 | 0 | 0.0 | 0.0 | 0.05 | 0.55 | 0.49 | 97 | 1005.2 |
| 20260831084557 | 52 | 0 | 0.0 | 0.0 | 0.04 | 0.54 | 0.48 | 97 | 1005.3 |
| 20260831084030 | 52 | 0 | 0.0 | 0.0 | 0.05 | 0.54 | 0.48 | 98 | 1005.2 |
| 20260831083531 | 52 | 0 | 0.0 | 0.0 | 0.05 | 0.54 | 0.48 | 98 | 1005.1 |
| 20260831083055 | 52 | 0 | 0.0 | 0.0 | 0.05 | 0.54 | 0.48 | 97 | 1005.1 |
| 20260831082531 | 52 | 0 | 0.0 | 0.0 | 0.05 | 0.52 | 0.47 | 98 | 1005.1 |
| 20260831082032 | 52 | 0 | 0.0 | 0.0 | 0.05 | 0.52 | 0.47 | 97 | 1005.0 |
| 20260831081559 | 51 | 0 | 0.0 | 0.0 | 0.06 | 0.52 | 0.47 | 97 | 1005.0 |
| 20260831081030 | 51 | 0 | 0.0 | 0.0 | 0.05 | 0.52 | 0.46 | 97 | 1005.0 |
| 20260831080531 | 51 | 0 | 0.0 | 0.0 | 0.05 | 0.52 | 0.46 | 97 | 1005.0 |
| 20260831080051 | 51 | 0 | 0.0 | 0.0 | 0.05 | 0.51 | 0.45 | 97 | 1005.1 |
| 20260831075530 | 51 | 0 | 0.0 | 0.0 | 0.05 | 0.52 | 0.45 | 97 | 1005.0 |
| 20260831075031 | 51 | 0 | 0.0 | 0.0 | 0.05 | 0.51 | 0.44 | 97 | 1005.1 |
| 20260831074554 | 51 | 0 | 0.0 | 0.0 | 0.06 | 0.51 | 0.44 | 97 | 1005.0 |
| 20260831074033 | 51 | 0 | 0.0 | 0.0 | 0.05 | 0.50 | 0.43 | 97 | 1004.9 |
| 20260831073535 | 51 | 0 | 0.0 | 0.0 | 0.06 | 0.50 | 0.43 | 97 | 1004.9 |
| 20260831073048 | 51 | 0 | 0.0 | 1.0 | 0.07 | 0.50 | 0.43 | 97 | 1005.0 |
| 20260831072534 | 51 | 0 | 0.0 | 1.0 | 0.07 | 0.49 | 0.42 | 97 | 1005.0 |
| 20260831072031 | 51 | 0 | 0.0 | 1.0 | 0.07 | 0.49 | 0.42 | 97 | 1004.9 |
| 20260831071553 | 51 | 0 | 0.0 | 1.0 | 0.07 | 0.48 | 0.41 | 97 | 1004.8 |
| 20260831071031 | 51 | 0 | 0.0 | 1.0 | 0.08 | 0.48 | 0.41 | 97 | 1004.8 |
| 20260831070530 | 51 | 90 | 0.0 | 1.0 | 0.09 | 0.48 | 0.41 | 97 | 1004.9 |
| 20260831070110 | 52 | 0 | 0.0 | 0.0 | 0.09 | 0.47 | 0.40 | 97 | 1004.8 |
| 20260831065531 | 52 | 0 | 0.0 | 0.0 | 0.10 | 0.48 | 0.40 | 97 | 1004.8 |
| 20260831065029 | 52 | 0 | 0.0 | 0.0 | 0.10 | 0.47 | 0.39 | 97 | 1004.7 |
| 20260831064556 | 52 | 0 | 0.0 | 0.0 | 0.10 | 0.46 | 0.38 | 98 | 1004.7 |
| 20260831064030 | 52 | 0 | 0.0 | 0.0 | 0.12 | 0.46 | 0.38 | 98 | 1004.7 |
| 20260831063531 | 51 | 0 | 0.0 | 0.0 | 0.12 | 0.45 | 0.37 | 97 | 1004.7 |
| 20260831063053 | 51 | 0 | 0.0 | 0.0 | 0.12 | 0.44 | 0.36 | 98 | 1004.7 |
| 20260831062532 | 51 | 0 | 0.0 | 0.0 | 0.12 | 0.43 | 0.35 | 98 | 1004.6 |
| 20260831062032 | 51 | 0 | 0.0 | 0.0 | 0.12 | 0.42 | 0.34 | 97 | 1004.5 |
| 20260831061549 | 51 | 0 | 0.0 | 0.0 | 0.12 | 0.42 | 0.34 | 97 | 1004.5 |
| 20260831061029 | 51 | 0 | 0.0 | 0.0 | 0.12 | 0.41 | 0.33 | 97 | 1004.6 |
| 20260831060530 | 51 | 0 | 0.0 | 0.0 | 0.13 | 0.40 | 0.32 | 97 | 1004.5 |
| 20260831060100 | 51 | 0 | 0.0 | 0.0 | 0.13 | 0.39 | 0.31 | 97 | 1004.5 |
| 20260831055531 | 51 | 0 | 0.0 | 0.0 | 0.12 | 0.39 | 0.30 | 97 | 1004.4 |
| 20260831055036 | 51 | 0 | 0.0 | 0.0 | 0.12 | 0.38 | 0.29 | 97 | 1004.5 |
| 20260831054558 | 51 | 0 | 0.0 | 0.0 | 0.12 | 0.37 | 0.28 | 97 | 1004.4 |
| 20260831054032 | 51 | 0 | 0.0 | 0.0 | 0.11 | 0.35 | 0.26 | 97 | 1004.4 |
| 20260831053531 | 51 | 0 | 0.0 | 0.0 | 0.11 | 0.34 | 0.25 | 97 | 1004.4 |
| 20260831053055 | 51 | 0 | 0.0 | 0.0 | 0.11 | 0.33 | 0.24 | 97 | 1004.4 |
| 20260831052533 | 51 | 0 | 0.0 | 0.0 | 0.10 | 0.32 | 0.23 | 97 | 1004.4 |
| 20260831052028 | 51 | 0 | 0.0 | 0.0 | 0.10 | 0.31 | 0.22 | 97 | 1004.4 |
| 20260831051615 | 51 | 0 | 0.0 | 0.0 | 0.09 | 0.30 | 0.21 | 97 | 1004.3 |
| 20260831051030 | 51 | 0 | 0.0 | 0.0 | 0.09 | 0.29 | 0.20 | 97 | 1004.3 |
| 20260831050530 | 51 | 0 | 0.0 | 0.0 | 0.08 | 0.28 | 0.19 | 97 | 1004.3 |
| 20260831050103 | 51 | 0 | 0.0 | 0.0 | 0.08 | 0.27 | 0.18 | 97 | 1004.3 |
| 20260831045530 | 51 | 0 | 0.0 | 0.0 | 0.08 | 0.27 | 0.18 | 97 | 1004.3 |
| 20260831045031 | 51 | 0 | 0.0 | 0.0 | 0.07 | 0.26 | 0.17 | 97 | 1004.3 |
| 20260831044604 | 51 | 0 | 0.0 | 0.0 | 0.07 | 0.25 | 0.16 | 97 | 1004.3 |
| 20260831044029 | 51 | 0 | 0.0 | 0.0 | 0.06 | 0.24 | 0.15 | 97 | 1004.2 |
| 20260831043531 | 51 | 0 | 0.0 | 0.0 | 0.06 | 0.23 | 0.14 | 97 | 1004.2 |
| 20260831043051 | 51 | 0 | 0.0 | 0.0 | 0.05 | 0.22 | 0.13 | 97 | 1004.1 |
| 20260831042530 | 51 | 307 | 0.0 | 0.0 | 0.06 | 0.22 | 0.13 | 97 | 1004.1 |
| 20260831042030 | 51 | 0 | 0.0 | 0.0 | 0.05 | 0.21 | 0.12 | 96 | 1004.0 |
| 20260831041552 | 51 | 0 | 0.0 | 0.0 | 0.05 | 0.21 | 0.12 | 97 | 1004.1 |
| 20260831041034 | 51 | 0 | 0.0 | 0.0 | 0.05 | 0.20 | 0.11 | 97 | 1004.1 |
| 20260831040531 | 51 | 0 | 0.0 | 1.0 | 0.05 | 0.20 | 0.11 | 97 | 1004.1 |
| 20260831040051 | 51 | 0 | 0.0 | 1.0 | 0.05 | 0.19 | 0.10 | 97 | 1004.2 |
| 20260831035532 | 51 | 0 | 0.0 | 0.0 | 0.06 | 0.19 | 0.10 | 97 | 1004.1 |
| 20260831035031 | 51 | 0 | 0.0 | 0.0 | 0.06 | 0.19 | 0.10 | 97 | 1004.1 |
| 20260831034553 | 51 | 0 | 0.0 | 0.0 | 0.06 | 0.18 | 0.09 | 97 | 1004.1 |
| 20260831034031 | 51 | 0 | 0.0 | 2.0 | 0.06 | 0.18 | 0.09 | 97 | 1004.1 |
| 20260831033531 | 51 | 0 | 0.0 | 2.0 | 0.05 | 0.17 | 0.08 | 96 | 1004.1 |
| 20260831033051 | 52 | 0 | 0.0 | 3.0 | 0.05 | 0.17 | 0.08 | 96 | 1004.2 |
| 20260831032532 | 52 | 32 | 1.0 | 3.0 | 0.04 | 0.16 | 0.07 | 96 | 1004.2 |
| 20260831032028 | 52 | 0 | 0.0 | 4.0 | 0.05 | 0.16 | 0.07 | 96 | 1004.1 |
| 20260831031559 | 52 | 27 | 0.0 | 4.0 | 0.05 | 0.16 | 0.07 | 96 | 1004.2 |
| 20260831031030 | 52 | 0 | 0.0 | 0.0 | 0.04 | 0.15 | 0.06 | 96 | 1004.0 |
| 20260831030530 | 52 | 0 | 0.0 | 0.0 | 0.04 | 0.15 | 0.06 | 96 | 1004.1 |
| 20260831030054 | 52 | 0 | 0.0 | 0.0 | 0.03 | 0.14 | 0.05 | 96 | 1004.1 |
| 20260831025531 | 52 | 0 | 0.0 | 0.0 | 0.03 | 0.14 | 0.04 | 96 | 1004.0 |
| 20260831025031 | 52 | 0 | 0.0 | 0.0 | 0.03 | 0.14 | 0.04 | 96 | 1004.0 |
| 20260831024618 | 52 | 0 | 0.0 | 0.0 | 0.02 | 0.13 | 0.03 | 96 | 1003.9 |
| 20260831024033 | 52 | 0 | 0.0 | 0.0 | 0.03 | 0.13 | 0.03 | 96 | 1003.9 |
| 20260831023531 | 52 | 0 | 0.0 | 0.0 | 0.03 | 0.13 | 0.03 | 96 | 1003.9 |
| 20260831023054 | 52 | 0 | 0.0 | 0.0 | 0.03 | 0.13 | 0.03 | 96 | 1003.9 |
| 20260831022531 | 52 | 0 | 0.0 | 0.0 | 0.03 | 0.13 | 0.03 | 96 | 1003.9 |
| 20260831022031 | 52 | 0 | 0.0 | 0.0 | 0.02 | 0.12 | 0.02 | 96 | 1003.9 |
| 20260831021601 | 52 | 0 | 0.0 | 0.0 | 0.02 | 0.12 | 0.02 | 96 | 1004.0 |
| 20260831021031 | 52 | 0 | 0.0 | 0.0 | 0.02 | 0.12 | 0.02 | 95 | 1003.9 |
| 20260831020530 | 52 | 0 | 0.0 | 0.0 | 0.02 | 0.12 | 0.02 | 95 | 1003.9 |
| 20260831020054 | 52 | 0 | 0.0 | 0.0 | 0.02 | 0.12 | 0.02 | 95 | 1004.0 |
| 20260831015531 | 52 | 0 | 0.0 | 0.0 | 0.01 | 0.12 | 0.01 | 95 | 1004.0 |
| 20260831015030 | 52 | 0 | 0.0 | 0.0 | 0.01 | 0.12 | 0.01 | 95 | 1004.0 |
| 20260831014550 | 52 | 0 | 0.0 | 0.0 | 0.01 | 0.12 | 0.01 | 95 | 1003.9 |
| 20260831014031 | 52 | 0 | 0.0 | 0.0 | 0.00 | 0.11 | 0.00 | 95 | 1003.9 |
| 20260831013528 | 52 | 0 | 0.0 | 0.0 | 0.00 | 0.11 | 0.00 | 95 | 1003.9 |
| 20260831013102 | 52 | 0 | 0.0 | 0.0 | 0.00 | 0.11 | 0.00 | 95 | 1003.9 |
| 20260831012530 | 52 | 0 | 0.0 | 0.0 | 0.00 | 0.11 | 0.00 | 95 | 1003.9 |
| 20260831012031 | 52 | 0 | 0.0 | 0.0 | 0.00 | 0.11 | 0.00 | 95 | 1003.8 |
| 20260831011556 | 52 | 0 | 0.0 | 0.0 | 0.00 | 0.11 | 0.00 | 95 | 1003.8 |
| 20260831011029 | 52 | 0 | 0.0 | 0.0 | 0.00 | 0.11 | 0.00 | 95 | 1003.8 |
| 20260831010530 | 52 | 0 | 0.0 | 0.0 | 0.00 | 0.11 | 0.00 | 95 | 1003.7 |
| 20260831010127 | 52 | 0 | 0.0 | 0.0 | 0.00 | 0.11 | 0.00 | 95 | 1003.7 |
| 20260831005531 | 52 | 0 | 0.0 | 0.0 | 0.00 | 0.12 | 0.00 | 95 | 1003.7 |
| 20260831005030 | 52 | 0 | 0.0 | 0.0 | 0.00 | 0.12 | 0.00 | 95 | 1003.8 |
| 20260831004551 | 52 | 0 | 0.0 | 0.0 | 0.00 | 0.12 | 0.00 | 95 | 1003.8 |
| 20260831004031 | 52 | 0 | 0.0 | 0.0 | 0.00 | 0.12 | 0.00 | 95 | 1003.8 |
| 20260831003530 | 52 | 0 | 0.0 | 0.0 | 0.00 | 0.12 | 0.00 | 95 | 1003.8 |
| 20260831003047 | 52 | 0 | 0.0 | 0.0 | 0.00 | 0.12 | 0.00 | 95 | 1003.8 |
| 20260831002530 | 52 | 0 | 0.0 | 0.0 | 0.00 | 0.12 | 0.00 | 95 | 1003.7 |
| 20260831002028 | 52 | 0 | 0.0 | 0.0 | 0.00 | 0.12 | 0.00 | 94 | 1003.7 |
| 20260831001609 | 52 | 0 | 0.0 | 0.0 | 0.00 | 0.12 | 0.00 | 94 | 1003.7 |
| 20260831001030 | 52 | 0 | 0.0 | 0.0 | 0.00 | 0.12 | 0.00 | 94 | 1003.7 |
| 20260831000531 | 52 | 0 | 0.0 | 0.0 | 0.00 | 0.12 | 0.00 | 94 | 1003.8 |
| 20260831000057 | 52 | 0 | 0.0 | 0.0 | 0.00 | 0.12 | 0.00 | 94 | 1003.9 |
| 20260830235530 | 52 | 0 | 0.0 | 0.0 | 0.00 | 0.12 | 0.00 | 94 | 1003.8 |
| 20260830235033 | 52 | 0 | 0.0 | 0.0 | 0.00 | 0.12 | 0.00 | 94 | 1003.7 |
| 20260830234552 | 52 | 0 | 0.0 | 0.0 | 0.00 | 0.12 | 0.00 | 94 | 1003.7 |
| 20260830234031 | 52 | 0 | 0.0 | 0.0 | 0.00 | 0.12 | 0.00 | 94 | 1003.7 |
| 20260830233531 | 52 | 0 | 0.0 | 0.0 | 0.00 | 0.12 | 0.00 | 94 | 1003.7 |
| 20260830233049 | 52 | 0 | 0.0 | 0.0 | 0.00 | 0.12 | 0.00 | 94 | 1003.7 |
| 20260830232531 | 52 | 0 | 0.0 | 0.0 | 0.00 | 0.12 | 0.00 | 94 | 1003.7 |
| 20260830232030 | 52 | 0 | 0.0 | 0.0 | 0.00 | 0.12 | 0.00 | 94 | 1003.7 |
| 20260830231553 | 52 | 0 | 0.0 | 0.0 | 0.00 | 0.12 | 0.00 | 94 | 1003.6 |
| 20260830231031 | 53 | 0 | 0.0 | 0.0 | 0.00 | 0.12 | 0.00 | 94 | 1003.6 |
| 20260830230530 | 52 | 0 | 0.0 | 0.0 | 0.00 | 0.12 | 0.00 | 94 | 1003.7 |
| 20260830230056 | 53 | 0 | 0.0 | 0.0 | 0.00 | 0.12 | 0.00 | 94 | 1003.6 |
| 20260830225531 | 53 | 0 | 0.0 | 0.0 | 0.00 | 0.12 | 0.00 | 94 | 1003.6 |
| 20260830225031 | 52 | 0 | 0.0 | 0.0 | 0.00 | 0.12 | 0.00 | 94 | 1003.6 |
| 20260830224601 | 52 | 0 | 0.0 | 0.0 | 0.00 | 0.12 | 0.00 | 94 | 1003.6 |
| 20260830224031 | 52 | 0 | 0.0 | 0.0 | 0.00 | 0.12 | 0.00 | 94 | 1003.7 |
| 20260830223531 | 52 | 0 | 0.0 | 0.0 | 0.00 | 0.12 | 0.00 | 94 | 1003.7 |
| 20260830223048 | 52 | 0 | 0.0 | 0.0 | 0.00 | 0.12 | 0.00 | 94 | 1003.6 |
| 20260830222531 | 52 | 0 | 0.0 | 0.0 | 0.00 | 0.12 | 0.00 | 94 | 1003.6 |
| 20260830222035 | 52 | 0 | 0.0 | 0.0 | 0.00 | 0.12 | 0.00 | 94 | 1003.6 |
| 20260830221559 | 52 | 0 | 0.0 | 0.0 | 0.00 | 0.12 | 0.00 | 94 | 1003.7 |
| 20260830221030 | 52 | 0 | 0.0 | 0.0 | 0.00 | 0.12 | 0.00 | 94 | 1003.8 |
| 20260830220530 | 52 | 0 | 0.0 | 0.0 | 0.00 | 0.12 | 0.00 | 94 | 1003.8 |
| 20260830220115 | 52 | 0 | 0.0 | 0.0 | 0.00 | 0.12 | 0.00 | 94 | 1003.7 |
| 20260830215535 | 53 | 0 | 0.0 | 0.0 | 0.00 | 0.12 | 0.12 | 94 | 1003.7 |
| 20260830215028 | 53 | 0 | 0.0 | 0.0 | 0.00 | 0.12 | 0.12 | 94 | 1003.8 |
| 20260830214557 | 53 | 0 | 0.0 | 0.0 | 0.00 | 0.12 | 0.12 | 94 | 1003.8 |
| 20260830214031 | 53 | 0 | 0.0 | 0.0 | 0.00 | 0.12 | 0.12 | 94 | 1003.7 |
| 20260830213530 | 52 | 0 | 0.0 | 0.0 | 0.00 | 0.12 | 0.12 | 94 | 1003.7 |
| 20260830213053 | 53 | 0 | 0.0 | 0.0 | 0.00 | 0.12 | 0.12 | 94 | 1003.6 |
| 20260830212530 | 53 | 0 | 0.0 | 0.0 | 0.00 | 0.12 | 0.12 | 94 | 1003.6 |
| 20260830212030 | 53 | 0 | 0.0 | 0.0 | 0.00 | 0.12 | 0.12 | 94 | 1003.5 |
| 20260830211552 | 53 | 0 | 0.0 | 0.0 | 0.00 | 0.12 | 0.12 | 94 | 1003.4 |
| 20260830211031 | 53 | 0 | 0.0 | 0.0 | 0.00 | 0.12 | 0.12 | 94 | 1003.5 |
| 20260830210531 | 53 | 0 | 0.0 | 0.0 | 0.00 | 0.12 | 0.12 | 93 | 1003.6 |
| 20260830210051 | 53 | 0 | 0.0 | 0.0 | 0.00 | 0.12 | 0.12 | 93 | 1003.6 |
| 20260830205530 | 53 | 0 | 0.0 | 0.0 | 0.00 | 0.12 | 0.12 | 93 | 1003.6 |
| 20260830205030 | 53 | 0 | 0.0 | 0.0 | 0.00 | 0.12 | 0.12 | 94 | 1003.6 |
| 20260830204548 | 53 | 0 | 0.0 | 0.0 | 0.00 | 0.12 | 0.12 | 94 | 1003.5 |
| 20260830204030 | 53 | 0 | 0.0 | 0.0 | 0.00 | 0.12 | 0.12 | 94 | 1003.6 |
| 20260830203530 | 53 | 0 | 0.0 | 0.0 | 0.00 | 0.12 | 0.12 | 94 | 1003.6 |
| 20260830203110 | 53 | 0 | 0.0 | 0.0 | 0.00 | 0.12 | 0.12 | 94 | 1003.6 |
| 20260830202528 | 53 | 0 | 0.0 | 0.0 | 0.00 | 0.12 | 0.12 | 94 | 1003.6 |
| 20260830202030 | 53 | 0 | 0.0 | 0.0 | 0.00 | 0.12 | 0.12 | 94 | 1003.6 |
| 20260830201554 | 53 | 0 | 0.0 | 0.0 | 0.00 | 0.12 | 0.12 | 94 | 1003.6 |
| 20260830201030 | 53 | 0 | 0.0 | 0.0 | 0.00 | 0.12 | 0.12 | 94 | 1003.5 |
| 20260830200530 | 53 | 0 | 0.0 | 0.0 | 0.00 | 0.12 | 0.12 | 94 | 1003.5 |
| 20260830200058 | 53 | 0 | 0.0 | 0.0 | 0.00 | 0.12 | 0.12 | 94 | 1003.6 |
| 20260830195530 | 53 | 0 | 0.0 | 0.0 | 0.00 | 0.12 | 0.12 | 94 | 1003.6 |
| 20260830195027 | 53 | 0 | 0.0 | 0.0 | 0.00 | 0.12 | 0.12 | 94 | 1003.6 |
| 20260830194548 | 53 | 0 | 0.0 | 0.0 | 0.00 | 0.12 | 0.12 | 94 | 1003.5 |
| 20260830194031 | 53 | 0 | 0.0 | 0.0 | 0.00 | 0.12 | 0.12 | 94 | 1003.5 |
| 20260830193531 | 53 | 0 | 0.0 | 0.0 | 0.00 | 0.12 | 0.12 | 93 | 1003.4 |
| 20260830193052 | 53 | 0 | 0.0 | 0.0 | 0.00 | 0.12 | 0.12 | 93 | 1003.4 |
| 20260830192531 | 53 | 0 | 0.0 | 0.0 | 0.00 | 0.12 | 0.12 | 93 | 1003.4 |
| 20260830192030 | 53 | 0 | 0.0 | 0.0 | 0.00 | 0.12 | 0.12 | 93 | 1003.4 |
| 20260830191549 | 53 | 0 | 0.0 | 0.0 | 0.00 | 0.12 | 0.12 | 94 | 1003.5 |
| 20260830191028 | 53 | 0 | 0.0 | 0.0 | 0.00 | 0.12 | 0.12 | 93 | 1003.5 |
| 20260830190531 | 53 | 0 | 0.0 | 0.0 | 0.00 | 0.12 | 0.12 | 94 | 1003.5 |
| 20260830190049 | 53 | 0 | 0.0 | 0.0 | 0.00 | 0.12 | 0.12 | 94 | 1003.4 |
| 20260830185530 | 53 | 0 | 0.0 | 0.0 | 0.00 | 0.12 | 0.12 | 94 | 1003.4 |
| 20260830185031 | 53 | 0 | 0.0 | 0.0 | 0.00 | 0.12 | 0.12 | 94 | 1003.4 |
| 20260830184557 | 53 | 0 | 0.0 | 0.0 | 0.00 | 0.12 | 0.12 | 93 | 1003.4 |
| 20260830184036 | 53 | 0 | 0.0 | 0.0 | 0.00 | 0.12 | 0.12 | 93 | 1003.3 |
| 20260830183534 | 53 | 0 | 0.0 | 0.0 | 0.00 | 0.12 | 0.12 | 93 | 1003.3 |
| 20260830183111 | 53 | 0 | 0.0 | 0.0 | 0.00 | 0.12 | 0.12 | 93 | 1003.3 |
| 20260830182530 | 53 | 0 | 0.0 | 0.0 | 0.00 | 0.12 | 0.12 | 93 | 1003.2 |
| 20260830182031 | 54 | 0 | 0.0 | 0.0 | 0.00 | 0.12 | 0.12 | 93 | 1003.2 |
| 20260830181555 | 54 | 0 | 0.0 | 0.0 | 0.00 | 0.12 | 0.12 | 92 | 1003.3 |
| 20260830181031 | 54 | 0 | 0.0 | 0.0 | 0.00 | 0.12 | 0.12 | 92 | 1003.2 |
| 20260830180527 | 54 | 0 | 0.0 | 0.0 | 0.00 | 0.12 | 0.12 | 92 | 1003.2 |
| 20260830180105 | 54 | 0 | 0.0 | 0.0 | 0.00 | 0.12 | 0.12 | 91 | 1003.2 |
| 20260830175530 | 54 | 0 | 0.0 | 0.0 | 0.00 | 0.12 | 0.12 | 91 | 1003.2 |
| 20260830175031 | 54 | 0 | 0.0 | 0.0 | 0.00 | 0.12 | 0.12 | 91 | 1003.2 |
| 20260830174555 | 54 | 0 | 0.0 | 0.0 | 0.00 | 0.12 | 0.12 | 90 | 1003.1 |
| 20260830174030 | 54 | 0 | 0.0 | 0.0 | 0.00 | 0.12 | 0.12 | 90 | 1003.1 |
| 20260830173533 | 54 | 0 | 0.0 | 0.0 | 0.00 | 0.12 | 0.12 | 90 | 1003.1 |
| 20260830173114 | 54 | 0 | 0.0 | 0.0 | 0.00 | 0.12 | 0.12 | 90 | 1002.9 |
| 20260830172533 | 55 | 0 | 0.0 | 0.0 | 0.00 | 0.12 | 0.12 | 90 | 1002.9 |
| 20260830172033 | 55 | 0 | 0.0 | 0.0 | 0.00 | 0.12 | 0.12 | 89 | 1002.9 |
| 20260830171600 | 55 | 0 | 0.0 | 0.0 | 0.00 | 0.12 | 0.12 | 88 | 1002.9 |
| 20260830171032 | 55 | 0 | 0.0 | 0.0 | 0.00 | 0.12 | 0.12 | 89 | 1002.9 |
| 20260830170530 | 55 | 0 | 0.0 | 0.0 | 0.00 | 0.12 | 0.12 | 89 | 1002.9 |
| 20260830170055 | 55 | 0 | 0.0 | 0.0 | 0.00 | 0.12 | 0.12 | 89 | 1002.8 |
| 20260830165533 | 55 | 0 | 0.0 | 0.0 | 0.00 | 0.12 | 0.12 | 89 | 1002.8 |
| 20260830165030 | 55 | 0 | 0.0 | 0.0 | 0.00 | 0.12 | 0.12 | 89 | 1002.8 |
| 20260830164551 | 55 | 0 | 0.0 | 0.0 | 0.00 | 0.12 | 0.12 | 89 | 1002.8 |
| 20260830164030 | 55 | 0 | 0.0 | 0.0 | 0.00 | 0.12 | 0.12 | 89 | 1002.7 |
| 20260830163530 | 55 | 0 | 0.0 | 0.0 | 0.00 | 0.12 | 0.12 | 89 | 1002.8 |
| 20260830163103 | 56 | 0 | 0.0 | 0.0 | 0.00 | 0.12 | 0.12 | 89 | 1002.7 |
| 20260830162534 | 56 | 0 | 0.0 | 0.0 | 0.00 | 0.12 | 0.12 | 89 | 1002.8 |
| 20260830162030 | 56 | 0 | 0.0 | 0.0 | 0.00 | 0.12 | 0.12 | 88 | 1002.7 |
| 20260830161614 | 56 | 0 | 0.0 | 0.0 | 0.00 | 0.12 | 0.12 | 89 | 1002.7 |
| 20260830161032 | 56 | 0 | 0.0 | 0.0 | 0.00 | 0.12 | 0.12 | 89 | 1002.8 |